| time (UTC) | temp F | wind direction | speed MPH | gust MPH | rain 1hr in | rain 24hr in | rain mn in | humidity % | barometer mb |
| 20260502201903 | 52 | 135 | 0.0 | 0.0 | 0.00 | 0.18 | 0.18 | 91 | 1010.7 |
| 20260502200903 | 52 | 146 | 0.0 | 0.0 | 0.00 | 0.18 | 0.18 | 91 | 1010.8 |
| 20260502200403 | 52 | 147 | 0.0 | 0.0 | 0.00 | 0.18 | 0.18 | 91 | 1010.8 |
| 20260502195903 | 52 | 147 | 0.0 | 0.0 | 0.00 | 0.18 | 0.18 | 91 | 1010.8 |
| 20260502195403 | 52 | 147 | 0.0 | 0.0 | 0.00 | 0.18 | 0.18 | 91 | 1010.8 |
| 20260502193903 | 53 | 181 | 3.0 | 6.0 | 0.00 | 0.18 | 0.18 | 91 | 1010.8 |
| 20260502193403 | 53 | 175 | 1.0 | 5.0 | 0.00 | 0.18 | 0.18 | 91 | 1010.6 |
| 20260502192903 | 53 | 168 | 2.0 | 3.0 | 0.00 | 0.18 | 0.18 | 90 | 1010.6 |
| 20260502192403 | 53 | 186 | 1.0 | 5.0 | 0.00 | 0.18 | 0.18 | 90 | 1010.6 |
| 20260502191903 | 53 | 163 | 1.0 | 5.0 | 0.00 | 0.18 | 0.18 | 90 | 1010.6 |
| 20260502191403 | 54 | 119 | 0.0 | 0.0 | 0.00 | 0.18 | 0.18 | 89 | 1010.6 |
| 20260502190403 | 54 | 119 | 0.0 | 0.0 | 0.00 | 0.18 | 0.18 | 89 | 1010.6 |
| 20260502185903 | 55 | 119 | 0.0 | 0.0 | 0.00 | 0.18 | 0.18 | 89 | 1010.6 |
| 20260502185403 | 55 | 112 | 0.0 | 0.0 | 0.00 | 0.18 | 0.18 | 88 | 1010.6 |
| 20260502184903 | 55 | 95 | 1.0 | 3.0 | 0.00 | 0.18 | 0.18 | 88 | 1010.6 |
| 20260502184403 | 55 | 162 | 2.0 | 6.0 | 0.00 | 0.18 | 0.18 | 88 | 1010.6 |
| 20260502183903 | 55 | 111 | 3.0 | 7.0 | 0.00 | 0.18 | 0.18 | 88 | 1010.6 |
| 20260502183403 | 55 | 118 | 3.0 | 7.0 | 0.00 | 0.18 | 0.18 | 88 | 1010.6 |
| 20260502182903 | 55 | 106 | 4.0 | 8.0 | 0.00 | 0.18 | 0.18 | 88 | 1010.7 |
| 20260502181903 | 56 | 137 | 5.0 | 9.0 | 0.00 | 0.18 | 0.18 | 88 | 1010.7 |
| 20260502180903 | 56 | 188 | 3.0 | 8.0 | 0.00 | 0.18 | 0.18 | 88 | 1010.9 |
| 20260502180403 | 57 | 71 | 5.0 | 9.0 | 0.00 | 0.18 | 0.18 | 88 | 1010.9 |
| 20260502170403 | 56 | 100 | 2.0 | 6.0 | 0.00 | 0.18 | 0.18 | 89 | 1011.7 |
| 20260502162903 | 56 | 113 | 4.0 | 7.0 | 0.00 | 0.18 | 0.18 | 89 | 1012.1 |
| 20260502162403 | 57 | 105 | 3.0 | 7.0 | 0.00 | 0.18 | 0.18 | 89 | 1012.1 |
| 20260502161903 | 57 | 85 | 4.0 | 9.0 | 0.00 | 0.18 | 0.18 | 89 | 1012.1 |
| 20260502161404 | 57 | 99 | 2.0 | 6.0 | 0.00 | 0.18 | 0.18 | 89 | 1012.1 |
| 20260502160403 | 57 | 50 | 1.0 | 3.0 | 0.00 | 0.18 | 0.18 | 89 | 1012.1 |
| 20260502151903 | 55 | 96 | 3.0 | 7.0 | 0.02 | 0.18 | 0.18 | 90 | 1012.7 |
| 20260502150903 | 54 | 48 | 1.0 | 5.0 | 0.08 | 0.18 | 0.18 | 90 | 1012.7 |
| 20260502150403 | 55 | 68 | 0.0 | 0.0 | 0.10 | 0.18 | 0.18 | 90 | 1012.7 |
| 20260502123403 | 64 | 125 | 3.0 | 8.0 | 0.00 | 0.00 | 0.00 | 63 | 1014.5 |
| 20260502122903 | 64 | 88 | 6.0 | 12.0 | 0.00 | 0.00 | 0.00 | 61 | 1014.9 |
| 20260502121903 | 66 | 116 | 3.0 | 9.0 | 0.00 | 0.00 | 0.00 | 61 | 1014.9 |
| 20260502121403 | 67 | 98 | 3.0 | 9.0 | 0.00 | 0.00 | 0.00 | 60 | 1015.0 |
| 20260502120902 | 67 | 136 | 3.0 | 7.0 | 0.00 | 0.00 | 0.00 | 61 | 1015.0 |
| 20260502120403 | 66 | 63 | 3.0 | 8.0 | 0.00 | 0.00 | 0.00 | 61 | 1015.0 |
| 20260502115903 | 66 | 75 | 3.0 | 7.0 | 0.00 | 0.00 | 0.00 | 62 | 1015.0 |
| 20260502115403 | 66 | 74 | 5.0 | 8.0 | 0.00 | 0.00 | 0.00 | 62 | 1015.0 |
| 20260502114903 | 66 | 93 | 3.0 | 8.0 | 0.00 | 0.00 | 0.00 | 67 | 1015.2 |
| 20260502114403 | 66 | 116 | 5.0 | 12.0 | 0.00 | 0.00 | 0.00 | 67 | 1015.3 |
| 20260502113403 | 65 | 79 | 4.0 | 8.0 | 0.00 | 0.00 | 0.00 | 72 | 1015.3 |
| 20260502112903 | 64 | 23 | 5.0 | 8.0 | 0.00 | 0.00 | 0.00 | 73 | 1015.6 |
| 20260502112403 | 64 | 31 | 6.0 | 8.0 | 0.00 | 0.00 | 0.00 | 74 | 1015.6 |
| 20260502111903 | 64 | 353 | 5.0 | 8.0 | 0.00 | 0.00 | 0.00 | 74 | 1015.6 |
| 20260502111403 | 63 | 17 | 5.0 | 8.0 | 0.00 | 0.00 | 0.00 | 74 | 1016.1 |
| 20260502110903 | 63 | 40 | 6.0 | 8.0 | 0.00 | 0.00 | 0.00 | 74 | 1016.1 |
| 20260502105903 | 63 | 21 | 6.0 | 10.0 | 0.00 | 0.00 | 0.00 | 76 | 1016.1 |
| 20260502105403 | 62 | 47 | 6.0 | 10.0 | 0.00 | 0.00 | 0.00 | 77 | 1016.1 |
| 20260502104903 | 62 | 34 | 6.0 | 10.0 | 0.00 | 0.00 | 0.00 | 77 | 1016.5 |
| 20260502104402 | 62 | 34 | 5.0 | 8.0 | 0.00 | 0.00 | 0.00 | 78 | 1016.5 |
| 20260502103903 | 62 | 33 | 7.0 | 10.0 | 0.00 | 0.00 | 0.00 | 78 | 1016.5 |
| 20260502102903 | 62 | 26 | 5.0 | 8.0 | 0.00 | 0.00 | 0.00 | 79 | 1016.5 |
| 20260502101903 | 60 | 26 | 5.0 | 8.0 | 0.00 | 0.00 | 0.00 | 79 | 1016.5 |
| 20260502100903 | 62 | 52 | 3.0 | 7.0 | 0.00 | 0.00 | 0.00 | 80 | 1016.8 |
| 20260502100403 | 61 | 29 | 3.0 | 9.0 | 0.00 | 0.00 | 0.00 | 82 | 1016.8 |
| 20260502091403 | 60 | 351 | 3.0 | 5.0 | 0.00 | 0.00 | 0.00 | 82 | 1017.4 |
| 20260502090403 | 57 | 337 | 0.0 | 3.0 | 0.00 | 0.00 | 0.00 | 85 | 1017.4 |
| 20260502071403 | 53 | 135 | 0.0 | 0.0 | 0.00 | 0.00 | 0.00 | 92 | 1018.1 |
| 20260502070903 | 53 | 171 | 0.0 | 0.0 | 0.00 | 0.00 | 0.00 | 92 | 1018.1 |
| 20260502065903 | 53 | 152 | 0.0 | 0.0 | 0.00 | 0.00 | 0.00 | 92 | 1018.1 |
| 20260502065403 | 53 | 85 | 0.0 | 1.0 | 0.00 | 0.00 | 0.00 | 92 | 1018.1 |
| 20260502064903 | 53 | 91 | 0.0 | 0.0 | 0.00 | 0.00 | 0.00 | 92 | 1018.1 |
| 20260502064402 | 53 | 164 | 0.0 | 0.0 | 0.00 | 0.00 | 0.00 | 92 | 1018.1 |
| 20260502063903 | 53 | 150 | 0.0 | 0.0 | 0.00 | 0.00 | 0.00 | 92 | 1017.9 |
| 20260502063404 | 53 | 112 | 0.0 | 1.0 | 0.00 | 0.00 | 0.00 | 92 | 1017.9 |
| 20260502062903 | 53 | 112 | 0.0 | 0.0 | 0.00 | 0.00 | 0.00 | 92 | 1017.9 |
| 20260502062403 | 52 | 112 | 0.0 | 0.0 | 0.00 | 0.00 | 0.00 | 92 | 1017.9 |
| 20260502061903 | 52 | 112 | 0.0 | 0.0 | 0.00 | 0.00 | 0.00 | 92 | 1018.0 |
| 20260502061403 | 52 | 250 | 0.0 | 0.0 | 0.00 | 0.00 | 0.00 | 92 | 1018.0 |
| 20260502060903 | 52 | 250 | 0.0 | 0.0 | 0.00 | 0.00 | 0.00 | 92 | 1018.0 |
| 20260502060402 | 52 | 250 | 0.0 | 1.0 | 0.00 | 0.00 | 0.00 | 92 | 1018.0 |
| 20260502055903 | 52 | 281 | 0.0 | 1.0 | 0.00 | 0.00 | 0.00 | 92 | 1017.9 |
| 20260502054903 | 52 | 289 | 2.0 | 3.0 | 0.00 | 0.00 | 0.00 | 92 | 1017.9 |
| 20260502054403 | 52 | 291 | 2.0 | 3.0 | 0.00 | 0.00 | 0.00 | 92 | 1018.0 |
| 20260502053903 | 52 | 291 | 2.0 | 3.0 | 0.00 | 0.00 | 0.00 | 92 | 1018.0 |
| 20260502052403 | 52 | 298 | 0.0 | 0.0 | 0.00 | 0.00 | 0.00 | 92 | 1018.0 |
| 20260502051903 | 52 | 298 | 0.0 | 0.0 | 0.00 | 0.00 | 0.00 | 92 | 1018.0 |
| 20260502051403 | 52 | 298 | 0.0 | 5.0 | 0.00 | 0.00 | 0.00 | 92 | 1018.0 |
| 20260502050902 | 52 | 255 | 0.0 | 0.0 | 0.00 | 0.00 | 0.00 | 92 | 1018.0 |
| 20260502050403 | 52 | 244 | 0.0 | 2.0 | 0.00 | 0.00 | 0.00 | 92 | 1018.0 |
| 20260502045903 | 52 | 256 | 2.0 | 5.0 | 0.00 | 0.00 | 0.00 | 92 | 1018.0 |
| 20260502045403 | 52 | 237 | 0.0 | 2.0 | 0.00 | 0.00 | 0.00 | 92 | 1018.2 |
| 20260502044903 | 52 | 276 | 0.0 | 0.0 | 0.00 | 0.00 | 0.00 | 92 | 1018.2 |
| 20260502043403 | 52 | 276 | 0.0 | 0.0 | 0.00 | 0.00 | 0.00 | 92 | 1018.2 |
| 20260502042903 | 52 | 276 | 0.0 | 2.0 | 0.00 | 0.00 | 0.00 | 92 | 1018.2 |
| 20260502042403 | 52 | 276 | 0.0 | 2.0 | 0.00 | 0.00 | 0.00 | 92 | 1018.2 |
| 20260502041403 | 52 | 284 | 2.0 | 5.0 | 0.00 | 0.00 | 0.00 | 92 | 1018.2 |
| 20260502040403 | 52 | 243 | 0.0 | 0.0 | 0.00 | 0.00 | 0.00 | 92 | 1018.2 |
| 20260502035903 | 52 | 226 | 0.0 | 0.0 | 0.00 | 0.00 | 0.00 | 92 | 1018.2 |
| 20260502035403 | 52 | 226 | 0.0 | 0.0 | 0.00 | 0.00 | 0.00 | 92 | 1018.2 |
| 20260502034903 | 52 | 197 | 2.0 | 5.0 | 0.00 | 0.00 | 0.00 | 92 | 1018.2 |
| 20260502033903 | 51 | 222 | 2.0 | 5.0 | 0.00 | 0.00 | 0.00 | 92 | 1018.2 |
| 20260502033403 | 51 | 218 | 1.0 | 3.0 | 0.00 | 0.00 | 0.00 | 92 | 1018.2 |
| 20260502032903 | 51 | 216 | 0.0 | 2.0 | 0.00 | 0.00 | 0.00 | 92 | 1018.3 |
| 20260502032403 | 51 | 217 | 0.0 | 0.0 | 0.00 | 0.00 | 0.00 | 92 | 1018.3 |
| 20260502031903 | 51 | 216 | 0.0 | 3.0 | 0.00 | 0.00 | 0.00 | 92 | 1018.3 |
| 20260502031403 | 51 | 210 | 2.0 | 5.0 | 0.00 | 0.00 | 0.00 | 92 | 1018.7 |
| 20260502030903 | 51 | 224 | 0.0 | 3.0 | 0.00 | 0.00 | 0.00 | 92 | 1018.7 |
| 20260502025403 | 51 | 213 | 1.0 | 5.0 | 0.00 | 0.00 | 0.00 | 92 | 1018.7 |
| 20260502024403 | 50 | 206 | 0.0 | 2.0 | 0.00 | 0.00 | 0.00 | 92 | 1018.7 |
| 20260502023403 | 50 | 215 | 2.0 | 3.0 | 0.00 | 0.00 | 0.00 | 92 | 1018.7 |
| 20260502022903 | 50 | 206 | 0.0 | 0.0 | 0.00 | 0.00 | 0.00 | 92 | 1018.8 |
| 20260502022403 | 50 | 208 | 0.0 | 3.0 | 0.00 | 0.00 | 0.00 | 92 | 1018.8 |
| 20260502021403 | 50 | 197 | 1.0 | 3.0 | 0.00 | 0.00 | 0.00 | 92 | 1018.9 |
| 20260502020903 | 50 | 204 | 1.0 | 3.0 | 0.00 | 0.00 | 0.00 | 92 | 1018.9 |
| 20260502020403 | 50 | 210 | 2.0 | 3.0 | 0.00 | 0.00 | 0.00 | 91 | 1018.9 |
| 20260502015903 | 50 | 210 | 1.0 | 3.0 | 0.00 | 0.00 | 0.00 | 91 | 1018.9 |
| 20260502015403 | 50 | 233 | 0.0 | 2.0 | 0.00 | 0.00 | 0.00 | 91 | 1018.9 |
| 20260502014903 | 50 | 252 | 1.0 | 3.0 | 0.00 | 0.00 | 0.00 | 91 | 1018.9 |
| 20260502014403 | 50 | 212 | 1.0 | 6.0 | 0.00 | 0.00 | 0.00 | 91 | 1018.9 |
| 20260502013903 | 50 | 220 | 0.0 | 0.0 | 0.00 | 0.00 | 0.00 | 91 | 1018.9 |
| 20260502012903 | 50 | 214 | 0.0 | 0.0 | 0.00 | 0.00 | 0.00 | 90 | 1019.1 |
| 20260502012403 | 51 | 207 | 1.0 | 5.0 | 0.00 | 0.00 | 0.00 | 91 | 1019.0 |
| 20260502011903 | 51 | 200 | 3.0 | 6.0 | 0.00 | 0.00 | 0.00 | 91 | 1019.0 |
| 20260502011403 | 51 | 209 | 2.0 | 6.0 | 0.00 | 0.00 | 0.00 | 91 | 1019.0 |
| 20260502010903 | 51 | 204 | 5.0 | 7.0 | 0.00 | 0.00 | 0.00 | 91 | 1019.2 |
| 20260502010403 | 51 | 212 | 4.0 | 7.0 | 0.00 | 0.00 | 0.00 | 91 | 1019.2 |
| 20260502005903 | 51 | 199 | 5.0 | 10.0 | 0.00 | 0.00 | 0.00 | 91 | 1019.3 |
| 20260502005403 | 51 | 201 | 5.0 | 9.0 | 0.00 | 0.00 | 0.00 | 91 | 1019.3 |
| 20260502004403 | 51 | 201 | 3.0 | 6.0 | 0.00 | 0.00 | 0.00 | 91 | 1019.5 |
| 20260502003903 | 51 | 203 | 5.0 | 9.0 | 0.00 | 0.00 | 0.00 | 91 | 1019.5 |
| 20260502003403 | 51 | 218 | 4.0 | 7.0 | 0.00 | 0.00 | 0.00 | 91 | 1019.5 |
| 20260502002903 | 51 | 221 | 3.0 | 6.0 | 0.00 | 0.00 | 0.00 | 91 | 1019.5 |
| 20260502002404 | 51 | 214 | 4.0 | 6.0 | 0.00 | 0.00 | 0.00 | 91 | 1019.4 |
| 20260502001903 | 51 | 218 | 2.0 | 5.0 | 0.00 | 0.00 | 0.00 | 91 | 1019.4 |
| 20260502001403 | 51 | 231 | 2.0 | 9.0 | 0.00 | 0.00 | 0.00 | 91 | 1019.5 |
| 20260502000902 | 51 | 216 | 3.0 | 6.0 | 0.00 | 0.00 | 0.00 | 91 | 1019.5 |
| 20260502000403 | 51 | 251 | 3.0 | 8.0 | 0.00 | 0.00 | 0.00 | 91 | 1019.6 |
| 20260501235903 | 52 | 224 | 2.0 | 6.0 | 0.00 | 0.00 | 0.00 | 91 | 1019.6 |
| 20260501235403 | 52 | 222 | 3.0 | 6.0 | 0.00 | 0.00 | 0.00 | 91 | 1020.1 |
| 20260501234903 | 51 | 229 | 2.0 | 5.0 | 0.00 | 0.00 | 0.00 | 91 | 1020.1 |
| 20260501234403 | 51 | 242 | 1.0 | 3.0 | 0.00 | 0.00 | 0.00 | 91 | 1020.1 |
| 20260501233903 | 52 | 235 | 2.0 | 6.0 | 0.00 | 0.00 | 0.00 | 91 | 1020.1 |
| 20260501233403 | 52 | 221 | 3.0 | 6.0 | 0.00 | 0.00 | 0.00 | 91 | 1020.1 |
| 20260501232902 | 52 | 210 | 3.0 | 6.0 | 0.00 | 0.00 | 0.00 | 91 | 1020.1 |
| 20260501232403 | 52 | 226 | 3.0 | 9.0 | 0.00 | 0.00 | 0.00 | 91 | 1020.1 |
| 20260501231903 | 51 | 215 | 4.0 | 7.0 | 0.00 | 0.00 | 0.00 | 91 | 1020.1 |
| 20260501231403 | 51 | 225 | 2.0 | 3.0 | 0.00 | 0.00 | 0.00 | 91 | 1020.1 |
| 20260501225903 | 51 | 217 | 3.0 | 6.0 | 0.00 | 0.00 | 0.00 | 91 | 1020.0 |
| 20260501225403 | 51 | 227 | 2.0 | 7.0 | 0.00 | 0.00 | 0.00 | 91 | 1019.9 |
| 20260501224902 | 51 | 227 | 1.0 | 6.0 | 0.00 | 0.00 | 0.00 | 91 | 1019.9 |
| 20260501224403 | 51 | 245 | 1.0 | 5.0 | 0.00 | 0.00 | 0.00 | 91 | 1019.9 |
| 20260501223903 | 51 | 216 | 3.0 | 7.0 | 0.00 | 0.00 | 0.00 | 91 | 1019.9 |
| 20260501222903 | 51 | 208 | 3.0 | 7.0 | 0.00 | 0.00 | 0.00 | 91 | 1019.9 |
| 20260501221903 | 51 | 208 | 2.0 | 6.0 | 0.00 | 0.00 | 0.00 | 91 | 1019.9 |
| 20260501221403 | 51 | 201 | 2.0 | 7.0 | 0.00 | 0.00 | 0.00 | 91 | 1019.9 |
| 20260501220903 | 51 | 210 | 4.0 | 6.0 | 0.00 | 0.00 | 0.00 | 91 | 1019.9 |
| 20260501220403 | 51 | 201 | 3.0 | 7.0 | 0.00 | 0.00 | 0.00 | 90 | 1019.9 |
| 20260501215402 | 51 | 199 | 4.0 | 7.0 | 0.00 | 0.00 | 0.00 | 90 | 1019.9 |
| 20260501214903 | 51 | 199 | 3.0 | 6.0 | 0.00 | 0.00 | 0.00 | 90 | 1019.9 |
| 20260501214403 | 51 | 195 | 4.0 | 7.0 | 0.00 | 0.00 | 0.00 | 90 | 1019.9 |
| 20260501213903 | 51 | 203 | 3.0 | 6.0 | 0.00 | 0.00 | 0.00 | 90 | 1019.9 |
| 20260501213403 | 51 | 194 | 3.0 | 6.0 | 0.00 | 0.00 | 0.00 | 90 | 1019.9 |
| 20260501212903 | 51 | 196 | 4.0 | 6.0 | 0.00 | 0.00 | 0.00 | 90 | 1019.9 |
| 20260501212403 | 51 | 205 | 3.0 | 6.0 | 0.00 | 0.00 | 0.00 | 90 | 1019.9 |
| 20260501211403 | 52 | 192 | 3.0 | 7.0 | 0.00 | 0.00 | 0.00 | 89 | 1019.9 |
| 20260501210903 | 52 | 192 | 4.0 | 7.0 | 0.00 | 0.00 | 0.00 | 89 | 1019.9 |
| 20260501210403 | 52 | 186 | 4.0 | 7.0 | 0.00 | 0.00 | 0.00 | 89 | 1019.9 |
| 20260501205903 | 52 | 184 | 5.0 | 8.0 | 0.00 | 0.00 | 0.00 | 89 | 1019.7 |
| 20260501205403 | 52 | 189 | 3.0 | 7.0 | 0.00 | 0.00 | 0.00 | 89 | 1019.7 |
| 20260501204402 | 52 | 196 | 3.0 | 7.0 | 0.00 | 0.00 | 0.00 | 89 | 1019.8 |
| 20260501203903 | 52 | 217 | 3.0 | 7.0 | 0.00 | 0.00 | 0.00 | 89 | 1019.8 |
| 20260501202903 | 52 | 204 | 1.0 | 5.0 | 0.00 | 0.00 | 0.00 | 88 | 1019.8 |